Terminal Aerodrome Forecast
Issued by NWS

Home | Current Version | Previous Version | Text Only | Print | Product List | Glossary On
Versions: 1 2 3 4 5 6 7 8 9 10 11 12 13 14
000
FTUS45 KLKN 301100
TAFELY
TAF
KELY 301120Z 3012/3112 18009KT P6SM FEW250
     FM302000 17014G24KT P6SM SCT200
     FM310300 18011KT P6SM SCT200=

USA.gov is the U.S. government's official web portal to all federal, state and local government web resources and services.